Index of /mousepad_rectangular_images/2745

[ICO]NameLast modifiedSizeDescription

[PARENTDIR]Parent Directory  -  
[IMG]27450695-kuenstliches-hueftgelenk-2ft160_medium.jpg2016-04-19 18:54 98K 
[IMG]27450773-silvester-party-2011ft160_medium.jpg2016-04-19 18:54 127K 
[IMG]27453307ft160_medium.jpg2016-04-19 18:54 68K 
[IMG]27454258-sfondo-natalizio-con-albero-di-natale-formato-da-fiocchi-di-neveft160_medium.jpg2016-12-16 05:49 97K 
[IMG]27454259-branch-of-a-fur-treeft160_medium.jpg2016-12-16 05:45 120K 
[IMG]27454288-christmas-ballsft160_medium.jpg2016-12-16 05:43 82K 
[IMG]27454289-hand-success-or-angry-expressionft160_medium.jpg2016-12-16 05:44 57K 
[IMG]27454302-lightningft160_medium.jpg2016-12-16 05:42 68K 
[IMG]27454305-interior-of-ancient-churchft160_medium.jpg2016-12-16 05:44 144K 
[IMG]27454310-sfondo-natalizio-con-albero-di-natale-formato-da-fiocchi-di-neveft160_medium.jpg2016-12-16 05:43 110K 
[IMG]27454311-monument-of-the-woman-with-the-child-on-a-cemeteryft160_medium.jpg2016-12-16 05:45 97K 
[IMG]27454323-christmas-toys-on-branches-of-a-fur-treeft160_medium.jpg2016-12-16 05:46 150K 
[IMG]27454333-christmas-toys-on-branches-of-a-fur-treeft160_medium.jpg2016-12-16 05:49 155K 
[IMG]27454343-clara-traarft160_medium.jpg2016-12-16 05:48 64K 
[IMG]27454344-stadt-zell-an-der-moselft160_medium.jpg2016-12-16 05:47 119K 
[IMG]27454348-weihnachtenft160_medium.jpg2016-12-16 05:42 107K 
[IMG]27454350-facade-of-a-building-with-a-balcony-ft160_medium.jpg2016-12-16 05:51 139K 
[IMG]27454354-the-exterrier-of-ancient-churchft160_medium.jpg2016-12-16 05:44 124K 
[IMG]27454361-road-in-the-fieldsft160_medium.jpg2016-12-16 05:45 139K 
[IMG]27454373-nikolaussaeckchen-gefuellt-mit-mandarinen-und-schockoladeft160_medium.jpg2016-12-16 05:43 92K 
[IMG]27454374-old-compass-on-ancient-mapft160_medium.jpg2016-12-16 05:49 131K 
[IMG]27454378-cup-of-camomile-tazza-di-camomillaft160_medium.jpg2016-12-16 05:47 75K 
[IMG]27454384-old-senior-couple-walking-together-holding-their-handsft160_medium.jpg2016-12-16 05:45 102K 
[IMG]27454403-old-compass-on-ancient-mapft160_medium.jpg2016-12-16 05:43 130K 
[IMG]27454405-split-walnutft160_medium.jpg2016-12-16 05:46 68K 
[IMG]27454410-windft160_medium.jpg2016-12-16 05:44 82K 
[IMG]27454412-curl-cloudft160_medium.jpg2016-12-16 05:45 74K 
[IMG]27454426-the-boy-and-a-dandelionft160_medium.jpg2016-12-16 05:44 89K 
[IMG]27454428-venise-33ft160_medium.jpg2016-12-16 05:41 79K 
[IMG]27454431-altes-papier-auf-goldenen-untergrundft160_medium.jpg2016-12-16 05:47 100K 
[IMG]27454433-venise-34ft160_medium.jpg2016-12-16 05:48 101K 
[IMG]27454437-clamp-isolated-on-whiteft160_medium.jpg2016-12-16 05:45 44K 
[IMG]27454438-the-exterrier-of-ancient-churchft160_medium.jpg2016-12-16 05:41 103K 
[IMG]27454445-fiocchi-di-neveft160_medium.jpg2016-12-16 05:45 148K 
[IMG]27454446-weihnachten-17-ft160_medium.jpg2016-12-16 05:41 43K 
[IMG]27454449-senior-coupleft160_medium.jpg2016-12-16 05:49 75K 
[IMG]27454460-facade-of-a-building-with-windowsft160_medium.jpg2016-12-16 05:47 140K 
[IMG]27454465-clara-traarft160_medium.jpg2016-12-16 05:46 62K 
[IMG]27454466-oil-pumpft160_medium.jpg2016-12-16 05:41 85K 
[IMG]27454475-umrahmung-fuer-ein-foto-oder-textft160_medium.jpg2016-12-16 05:43 78K 
[IMG]27454484-winterportraitft160_medium.jpg2016-12-16 05:45 108K 
[IMG]27454498-oil-pumpft160_medium.jpg2016-12-16 05:44 74K 
[IMG]27454502-grunge-background-with-space-for-your-textft160_medium.jpg2016-12-16 05:50 163K 
[IMG]27454504-connection-with-barbadosft160_medium.jpg2016-12-16 05:47 81K 
[IMG]27454505-connection-with-bangladeshft160_medium.jpg2016-12-16 05:43 84K 
[IMG]27454506-ein-jahr-geht-zu-endeft160_medium.jpg2016-12-16 05:49 121K 
[IMG]27454511-connection-with-angolaft160_medium.jpg2016-12-16 05:45 83K 
[IMG]27454514-connection-with-albaniaft160_medium.jpg2016-12-16 05:47 80K 
[IMG]27454525-strandlaufft160_medium.jpg2016-12-16 05:42 84K 
[IMG]27454552-bocal-eau-moussante-bleue-avec-bouchon-de-liege-ft160_medium.jpg2016-12-16 05:44 91K 
[IMG]27454555-business-graph-with-oil-pumpft160_medium.jpg2016-12-16 05:49 66K 
[IMG]27454577-sale-paper-explode-greenft160_medium.jpg2016-12-16 05:42 67K 
[IMG]27454579-business-graph-with-oil-pumpft160_medium.jpg2016-12-16 05:50 65K 
[IMG]27454586-rheinisch-deutsches-kaltblutft160_medium.jpg2016-12-16 05:41 116K 
[IMG]27454587-clara-traarft160_medium.jpg2016-12-16 05:41 68K 
[IMG]27454588-book-stackft160_medium.jpg2016-12-16 05:45 85K 
[IMG]27454599-erholung-am-bootsstegft160_medium.jpg2016-12-16 05:43 75K 
[IMG]27454601-clessidraft160_medium.jpg2016-12-16 05:50 77K 
[IMG]27454609-orange-juiceft160_medium.jpg2016-12-16 05:48 53K 
[IMG]27454615ft160_medium.jpg2016-12-16 05:45 57K 
[IMG]27454623-ragazza-beve-vinoft160_medium.jpg2016-12-16 05:44 56K 
[IMG]27454624-versando-vino-nel-bicchiereft160_medium.jpg2016-12-16 05:44 63K 
[IMG]27454625-brindareft160_medium.jpg2016-12-16 05:42 66K 
[IMG]27454626-impiegata-addormentataft160_medium.jpg2016-12-16 05:47 63K 
[IMG]27454628-portraitft160_medium.jpg2016-12-16 05:49 94K 
[IMG]27454630-musicaft160_medium.jpg2016-12-16 05:47 72K 
[IMG]27454637-old-rusty-oil-pump-jackft160_medium.jpg2016-12-16 05:42 128K 
[IMG]27454648-petite-cascade-d-eau-vive-sur-des-rochersft160_medium.jpg2016-12-16 05:46 117K 
[IMG]27454649-palaceft160_medium.jpg2016-12-16 05:44 107K 
[IMG]27454663-holiday-backgroundft160_medium.jpg2016-12-16 05:41 95K 
[IMG]27454664-holiday-backgroundft160_medium.jpg2016-12-16 05:43 121K 
[IMG]27454665-sailing-on-the-seaft160_medium.jpg2016-12-16 05:47 79K 
[IMG]27454668-resting-on-a-sailboatft160_medium.jpg2016-12-16 05:41 95K 
[IMG]27454669-der-boese-lebkuchenmannft160_medium.jpg2016-12-16 05:41 96K 
[IMG]27454670-schloss-lichtenwalde-6ft160_medium.jpg2016-12-16 05:50 110K 
[IMG]27454671-holiday-backgroundft160_medium.jpg2016-12-16 05:45 81K 
[IMG]27454687-the-complete-set-campingft160_medium.jpg2016-12-16 05:45 89K 
[IMG]27454691-holiday-backgroundft160_medium.jpg2016-12-16 05:41 107K 
[IMG]27454697-ballkleidft160_medium.jpg2016-12-16 05:43 58K 
[IMG]27454706-touristft160_medium.jpg2016-12-16 05:49 63K 
[IMG]27454709-mountain-and-skyft160_medium.jpg2016-12-16 05:49 68K 
[IMG]27454712-mountain-arrayft160_medium.jpg2016-12-16 05:47 73K 
[IMG]27454713-power-linesft160_medium.jpg2016-12-16 05:49 86K 
[IMG]27454717-holiday-backgroundft160_medium.jpg2016-12-16 05:42 57K 
[IMG]27454722-oil-pumpft160_medium.jpg2016-12-16 05:46 74K 
[IMG]27454725-stethoscope-and-keyboard-illustrating-concept-of-digital-securitft160_medium.jpg2016-12-16 05:44 80K 
[IMG]27454734-carte-des-villes-principales-du-canadaft160_medium.jpg2016-12-16 05:47 120K 
[IMG]27454736-holiday-backgroundft160_medium.jpg2016-12-16 05:50 115K 
[IMG]27454740ft160_medium.jpg2016-12-16 05:45 76K 
[IMG]27454748-weihnachten-18-ft160_medium.jpg2016-12-16 05:44 73K 
[IMG]27454752-frau-mit-katzeft160_medium.jpg2016-12-16 05:42 47K 
[IMG]27454758-kadehft160_medium.jpg2016-12-16 05:42 78K 
[IMG]27454774-salatft160_medium.jpg2016-12-16 05:42 149K 
[IMG]27454775-hochspannungsleitungft160_medium.jpg2016-12-16 05:48 63K 
[IMG]27454776-stempel-aktion-ift160_medium.jpg2016-12-16 05:49 108K 
[IMG]27454780-drapeau-de-la-republique-democratique-du-congoft160_medium.jpg2016-12-16 05:50 72K 
[IMG]27454781-ail-presseft160_medium.jpg2016-12-16 05:47 55K 
[IMG]27454782-snowflakeft160_medium.jpg2016-12-16 05:49 88K 
[IMG]27454784-drinkft160_medium.jpg2016-12-16 05:47 56K 
[IMG]27454790-stempel-altersteilzeit-ift160_medium.jpg2016-12-16 05:43 110K 
[IMG]27454794-stethoscope-and-keyboard-illustrating-concept-of-digital-securitft160_medium.jpg2016-12-16 05:44 109K 
[IMG]27454795-steakft160_medium.jpg2016-12-16 05:46 114K 
[IMG]27454796-pieft160_medium.jpg2016-12-16 05:41 104K 
[IMG]27454799-stempel-betriebsrat-ift160_medium.jpg2016-12-16 05:50 104K 
[IMG]27454800-cup-of-camomile-tazza-di-camomillaft160_medium.jpg2016-12-16 05:45 79K 
[IMG]27454803-yoghurtft160_medium.jpg2016-12-16 05:42 88K 
[IMG]27454807-frau-mit-katzeft160_medium.jpg2016-12-16 05:48 48K 
[IMG]27454810-petite-cascade-d-eau-vive-sur-des-rochersft160_medium.jpg2016-12-16 05:43 122K 
[IMG]27454819-stempel-dinkel-ift160_medium.jpg2016-12-16 05:43 111K 
[IMG]27454823-salatft160_medium.jpg2016-12-16 05:45 111K 
[IMG]27454828-stempel-diskret-ift160_medium.jpg2016-12-16 05:41 110K 
[IMG]27454829-ten-pin-bowling-11ft160_medium.jpg2016-12-16 05:42 95K 
[IMG]27454833-modern-apartment-interior-3d-renderft160_medium.jpg2016-12-16 05:43 72K 
[IMG]27454834-stempel-einspruch-ift160_medium.jpg2016-12-16 05:45 98K 
[IMG]27454836-frau-mit-katzeft160_medium.jpg2016-12-16 05:42 70K 
[IMG]27454848-a-couple-of-red-poppiesft160_medium.jpg2016-12-16 05:47 103K 
[IMG]27454851-stempel-express-versand-ift160_medium.jpg2016-12-16 05:48 125K 
[IMG]27454852-salatkoepfeft160_medium.jpg2016-12-16 05:48 106K 
[IMG]27454853-mid-morning-coffee-break-timeft160_medium.jpg2016-12-16 05:50 79K 
[IMG]27454857-stempel-gebrauchtwagen-ift160_medium.jpg2016-12-16 05:43 119K 
[IMG]27454859-detailed-travel-iconsft160_medium.jpg2016-12-16 05:44 89K 
[IMG]27454865-feet-in-flip-flops-at-the-seaft160_medium.jpg2016-12-16 05:44 97K 
[IMG]27454870-stempel-gewerkschaft-ift160_medium.jpg2016-12-16 05:48 109K 
[IMG]27454871-sexy-nalaleft160_medium.jpg2016-12-16 05:43 72K 
[IMG]27454872-frau-mit-katzeft160_medium.jpg2016-12-16 05:46 71K 
[IMG]27454883-stempel-jahreswagen-ift160_medium.jpg2016-12-16 05:49 121K 
[IMG]27454886-the-hand-presses-the-fax-buttonft160_medium.jpg2016-12-16 05:41 63K 
[IMG]27454889-stempel-jetzt-waehlen-ift160_medium.jpg2016-12-16 05:51 121K 
[IMG]27454901-green-sprout-from-pillsft160_medium.jpg2016-12-16 05:44 60K 
[IMG]27454902-il-peso-del-denaroft160_medium.jpg2016-12-16 05:45 115K 
[IMG]27454907-katzen-frauft160_medium.jpg2016-12-16 05:44 64K 
[IMG]27454914-stempel-naturheilkunde-ift160_medium.jpg2016-12-16 05:44 112K 
[IMG]27454939-stempel-neuwagen-ift160_medium.jpg2016-12-16 05:48 113K 
[IMG]27454947-stempel-nur-fuer-mitglieder-ift160_medium.jpg2016-12-16 05:46 117K 
[IMG]27454954-mariesft160_medium.jpg2016-12-16 05:46 87K 
[IMG]27454957-mariesft160_medium.jpg2016-12-16 05:48 86K 
[IMG]27454959-frau-mit-katzeft160_medium.jpg2016-12-16 05:45 66K 
[IMG]27454961-mariesft160_medium.jpg2016-12-16 05:51 86K 
[IMG]27454962-knife-and-forkft160_medium.jpg2016-12-16 05:43 37K 
[IMG]27454963-mariesft160_medium.jpg2016-12-16 05:45 82K 
[IMG]27454964-stempel-privat-ift160_medium.jpg2016-12-16 05:43 109K 
[IMG]27454966-mariesft160_medium.jpg2016-12-16 05:43 77K 
[IMG]27454968-bouton-cashft160_medium.jpg2016-12-16 05:41 86K 
[IMG]27454970-crisisft160_medium.jpg2016-04-19 18:54 72K 
[IMG]27454972-stempel-privatsphaere-ift160_medium.jpg2016-12-16 05:42 106K 
[IMG]27454976-gocce-renderft160_medium.jpg2016-12-16 05:45 64K 
[IMG]27454977-stempel-prostest-ift160_medium.jpg2016-12-16 05:42 97K 
[IMG]27454980-stempel-statistik-ift160_medium.jpg2016-12-16 05:50 96K 
[IMG]27454990-theatre-concept-with-the-white-plastic-masksft160_medium.jpg2016-12-16 05:46 60K 
[IMG]27454992-black-office-calculatorft160_medium.jpg2016-12-16 05:42 85K 
[IMG]27454994-frau-mit-katzeft160_medium.jpg2016-12-16 05:50 61K 
[IMG]27454996-theatre-concept-with-the-white-plastic-masksft160_medium.jpg2016-12-16 05:44 61K 
[IMG]27454999-coucher-de-soleil-vu-du-cielft160_medium.jpg2016-12-16 05:44 81K 

Apache/2.4.12 (Ubuntu) Server at pics.mein-artikel-design.de Port 443